Weather History for Camdenton, MO

Change the Weather History Date:

Monday, April 21, 2014

  Actual Average (KAIZ) Record (KAIZ)
Temperature  
Mean Temperature 65 °F -  
Max Temperature 71 °F 65 °F 84 °F (1999)
Min Temperature 59 °F 45 °F 32 °F (2012)
Growing Degree Days 15 (Base 50)    
Moisture  
Dew Point 57 °F    
Average Humidity 80    
Maximum Humidity 94    
Minimum Humidity 57    
Precipitation  
Precipitation 0.53 in - - ()
Sea Level Pressure  
Sea Level Pressure 30.00 in    
Wind  
Wind Speed 5 mph (SW)    
Max Wind Speed 12 mph    
Max Gust Speed -    
Visibility 9 miles    
Events Rain    
Averages and records for this station are not official NWS values.
T = Trace of Precipitation, MM = Missing Value Source: NWS Daily Summary

Daily Weather History Graph

Daily Weather History Graph

Search for Another Location

Airport:

Trip Planner

Search our weather history database for the weather conditions in past years. The results will help you decide how hot, cold, wet, or windy it might be!

Date:

Astronomy

Apr. 21, 2014 Rise Set
Actual Time 6:27 AM CDT 7:52 PM CDT
Civil Twilight 5:59 AM CDT 8:19 PM CDT
Nautical Twilight 5:26 AM CDT 8:53 PM CDT
Astronomical Twilight 4:51 AM CDT 9:28 PM CDT
Moon 1:21 AM CDT (4/21) 11:55 AM CDT (4/21)
Length of Visible Light 14h 20m
Length of Day
13h 25m
Waning Gibbous, 57% of the Moon is Illuminated
Apr 21
Waning Gibbous
Apr 22
Last Quarter
Apr 29
New
May 6
First Quarter
May 14
Full

Hourly Weather History & Observations

Time (CDT) Temp. Dew Point Humidity Pressure Visibility Wind Dir Wind Speed Gust Speed Precip Events Conditions
12:15 AM 64.4 °F 50.0 °F 59% 30.04 in 10.0 mi SSE 5.8 mph - N/A   Clear
12:35 AM 62.6 °F 50.0 °F 63% 30.04 in 10.0 mi SSE 5.8 mph - N/A   Scattered Clouds
12:55 AM 64.4 °F 50.0 °F 59% 30.04 in 10.0 mi South 3.5 mph - N/A   Mostly Cloudy
1:15 AM 62.6 °F 50.0 °F 63% 30.03 in 10.0 mi Calm Calm - N/A   Scattered Clouds
1:35 AM 62.6 °F 50.0 °F 63% 30.03 in 10.0 mi South 3.5 mph - N/A   Clear
1:55 AM 62.6 °F 50.0 °F 63% 30.03 in 10.0 mi SSE 4.6 mph - N/A   Clear
2:15 AM 60.8 °F 50.0 °F 68% 30.03 in 10.0 mi SSE 3.5 mph - N/A   Clear
2:35 AM 60.8 °F 50.0 °F 68% 30.03 in 10.0 mi Calm Calm - N/A   Clear
2:55 AM 62.6 °F 50.0 °F 63% 30.03 in 10.0 mi South 3.5 mph - N/A   Clear
3:15 AM 62.6 °F 50.0 °F 63% 30.03 in 10.0 mi Calm Calm - N/A   Scattered Clouds
3:35 AM 60.8 °F 50.0 °F 68% 30.03 in 10.0 mi Calm Calm - N/A   Clear
3:55 AM 60.8 °F 50.0 °F 68% 30.03 in 10.0 mi Calm Calm - N/A   Clear
4:15 AM 60.8 °F 50.0 °F 68% 30.03 in 10.0 mi SSE 3.5 mph - N/A   Mostly Cloudy
4:35 AM 62.6 °F 50.0 °F 63% 30.04 in 10.0 mi South 5.8 mph - N/A   Overcast
4:55 AM 62.6 °F 50.0 °F 63% 30.05 in 7.0 mi WSW 6.9 mph - N/A   Overcast
5:15 AM 60.8 °F 53.6 °F 77% 30.05 in 10.0 mi SW 8.1 mph - N/A Rain Light Rain
5:35 AM 59.0 °F 55.4 °F 88% 30.05 in 7.0 mi WSW 5.8 mph - 0.04 in Rain Rain
5:55 AM 59.0 °F 55.4 °F 88% 30.04 in 7.0 mi WSW 5.8 mph - 0.06 in Rain Light Rain
6:15 AM 59.0 °F 55.4 °F 88% 30.04 in 7.0 mi SSW 4.6 mph - 0.01 in Rain Light Rain
6:35 AM 59.0 °F 55.4 °F 88% 30.05 in 7.0 mi South 4.6 mph - 0.01 in   Drizzle
6:55 AM 59.0 °F 55.4 °F 88% 30.05 in 7.0 mi SSW 3.5 mph - 0.02 in Rain Light Rain
7:15 AM 59.0 °F 55.4 °F 88% 30.05 in 7.0 mi Calm Calm - 0.01 in Rain Light Rain
7:35 AM 59.0 °F 55.4 °F 88% 30.05 in 7.0 mi SE 3.5 mph - 0.01 in Rain Light Rain
7:55 AM 59.0 °F 55.4 °F 88% 30.05 in 5.0 mi South 4.6 mph - 0.01 in   Light Drizzle
8:15 AM 59.0 °F 55.4 °F 88% 30.05 in 7.0 mi SSW 3.5 mph - N/A   Light Drizzle
8:35 AM 59.0 °F 55.4 °F 88% 30.05 in 7.0 mi SW 4.6 mph - 0.01 in Rain Rain
8:55 AM 59.0 °F 57.2 °F 94% 30.05 in 5.0 mi SSW 3.5 mph - 0.03 in Rain Light Rain
9:15 AM 59.0 °F 57.2 °F 94% 30.04 in 4.0 mi South 4.6 mph - 0.01 in Rain Light Rain
9:35 AM 60.8 °F 59.0 °F 94% 30.03 in 5.0 mi Calm Calm - 0.01 in   Light Drizzle
9:55 AM 60.8 °F 59.0 °F 94% 30.04 in 7.0 mi Calm Calm - 0.01 in   Overcast
10:15 AM 62.6 °F 59.0 °F 88% 30.03 in 10.0 mi SSW 5.8 mph - N/A   Overcast
10:35 AM 62.6 °F 59.0 °F 88% 30.02 in 10.0 mi South 4.6 mph - N/A   Overcast
10:55 AM 64.4 °F 59.0 °F 83% 30.02 in 10.0 mi South 5.8 mph - N/A   Overcast
11:15 AM 64.4 °F 59.0 °F 83% 30.02 in 10.0 mi SSW 6.9 mph - N/A   Overcast
11:35 AM 64.4 °F 59.0 °F 83% 30.03 in 10.0 mi SW 9.2 mph - N/A   Overcast
11:55 AM 64.4 °F 59.0 °F 83% 30.02 in 10.0 mi SW 8.1 mph - N/A   Overcast
12:15 PM 64.4 °F 59.0 °F 83% 30.02 in 10.0 mi WSW 6.9 mph - N/A   Overcast
12:35 PM 64.4 °F 59.0 °F 83% 30.02 in 10.0 mi SW 8.1 mph - N/A   Light Drizzle
12:55 PM 66.2 °F 59.0 °F 78% 30.01 in 10.0 mi South 5.8 mph - N/A   Overcast
1:15 PM 68.0 °F 59.0 °F 73% 30.00 in 10.0 mi SSW 6.9 mph - N/A   Overcast
1:35 PM 69.8 °F 59.0 °F 68% 29.99 in 10.0 mi SSW 6.9 mph - N/A   Mostly Cloudy
1:55 PM 69.8 °F 57.2 °F 64% 29.98 in 10.0 mi SSW 8.1 mph - N/A   Mostly Cloudy
2:15 PM 69.8 °F 57.2 °F 64% 29.97 in 10.0 mi WSW 6.9 mph - N/A   Overcast
2:35 PM 69.8 °F 57.2 °F 64% 29.97 in 10.0 mi WSW 5.8 mph - N/A   Overcast
2:55 PM 69.8 °F 57.2 °F 64% 29.96 in 10.0 mi West 6.9 mph - N/A   Overcast
3:15 PM 71.6 °F 55.4 °F 57% 29.96 in 10.0 mi West 8.1 mph - N/A   Overcast
3:35 PM 71.6 °F 55.4 °F 57% 29.95 in 10.0 mi WSW 8.1 mph - N/A   Mostly Cloudy
3:55 PM 71.6 °F 55.4 °F 57% 29.95 in 10.0 mi WSW 10.4 mph - N/A   Mostly Cloudy
4:15 PM 69.8 °F 59.0 °F 68% 29.95 in 10.0 mi SW 10.4 mph - N/A   Overcast
5:15 PM 62.6 °F 60.8 °F 94% 29.95 in 2.5 mi West 4.6 mph - 0.25 in Rain Heavy Rain
5:35 PM 62.6 °F 60.8 °F 94% 29.95 in 10.0 mi WSW 6.9 mph - 0.39 in Rain Light Rain
5:55 PM 64.4 °F 60.8 °F 88% 29.95 in 10.0 mi Calm Calm - 0.40 in   Mostly Cloudy
6:15 PM 64.4 °F 62.6 °F 94% 29.94 in 10.0 mi WSW 3.5 mph - N/A   Overcast
6:35 PM 66.2 °F 62.6 °F 88% 29.94 in 10.0 mi WSW 4.6 mph - N/A   Overcast
6:55 PM 66.2 °F 62.6 °F 88% 29.93 in 10.0 mi SW 4.6 mph - N/A   Scattered Clouds
7:15 PM 64.4 °F 60.8 °F 88% 29.94 in 10.0 mi WSW 4.6 mph - N/A   Clear
7:35 PM 64.4 °F 60.8 °F 88% 29.94 in 10.0 mi Calm Calm - N/A   Scattered Clouds
7:55 PM 64.4 °F 60.8 °F 88% 29.95 in 10.0 mi WSW 4.6 mph - N/A   Mostly Cloudy
8:15 PM 62.6 °F 60.8 °F 94% 29.95 in 10.0 mi WSW 4.6 mph - N/A   Mostly Cloudy
8:35 PM 62.6 °F 60.8 °F 94% 29.96 in 10.0 mi WSW 4.6 mph - N/A   Scattered Clouds
8:55 PM 62.6 °F 60.8 °F 94% 29.97 in 10.0 mi WSW 4.6 mph - N/A   Mostly Cloudy
9:15 PM 62.6 °F 60.8 °F 94% 29.97 in 10.0 mi WSW 4.6 mph - N/A   Scattered Clouds
9:35 PM 62.6 °F 60.8 °F 94% 29.99 in 10.0 mi WSW 4.6 mph - N/A   Scattered Clouds
9:55 PM 62.6 °F 60.8 °F 94% 29.99 in 10.0 mi WSW 5.8 mph - N/A   Scattered Clouds
10:15 PM 62.6 °F 60.8 °F 94% 29.98 in 10.0 mi WSW 5.8 mph - N/A   Clear
10:35 PM 62.6 °F 60.8 °F 94% 29.97 in 10.0 mi WSW 4.6 mph - N/A   Scattered Clouds
10:55 PM 62.6 °F 59.0 °F 88% 29.97 in 10.0 mi WSW 5.8 mph - N/A   Mostly Cloudy
11:15 PM 62.6 °F 59.0 °F 88% 29.97 in 10.0 mi West 6.9 mph - N/A   Scattered Clouds
11:35 PM 62.6 °F 59.0 °F 88% 29.97 in 10.0 mi West 8.1 mph - N/A   Scattered Clouds
11:55 PM 62.6 °F 57.2 °F 82% 29.98 in 10.0 mi NW 11.5 mph - N/A   Scattered Clouds